FW4559 Weather Reports


time (UTC)temp
C
wind
direction
speed
KPH
gust
KPH
rain 1hr
cm
rain 24hr
cm
rain mn
cm
humidity
%
barometer
mb
20260903231041 27 200 0.0 4.8 0.00 0.00 0.00 70 1015.4
20260903230542 27 230 1.6 4.8 0.00 0.00 0.00 70 1015.4
20260903230047 27 192 1.6 8.0 0.00 0.00 0.00 70 1015.3
20260903225542 27 184 3.2 8.0 0.00 0.00 0.00 69 1015.3
20260903225041 27 162 0.0 4.8 0.00 0.00 0.00 68 1015.3
20260903224541 27 199 1.6 3.2 0.00 0.00 0.00 68 1015.3
20260903224041 27 208 0.0 3.2 0.00 0.00 0.00 67 1015.3
20260903223542 27 193 0.0 8.0 0.00 0.00 0.00 67 1015.3
20260903223041 27 176 1.6 8.0 0.00 0.00 0.00 66 1015.2
20260903222545 28 187 3.2 8.0 0.00 0.00 0.00 64 1015.1
20260903222040 28 181 1.6 8.0 0.00 0.00 0.00 63 1015.1
20260903221540 28 208 1.6 6.4 0.00 0.00 0.00 63 1015.2
20260903221039 28 214 1.6 6.4 0.00 0.00 0.00 62 1015.1
20260903220539 28 184 1.6 8.0 0.00 0.00 0.00 61 1015.1
20260903220044 28 214 1.6 9.7 0.00 0.00 0.00 60 1015.1
20260903215541 28 143 3.2 9.7 0.00 0.00 0.00 59 1015.1
20260903215037 28 165 1.6 4.8 0.00 0.00 0.00 58 1015.2
20260903214543 28 193 0.0 8.0 0.00 0.00 0.00 56 1015.3
20260903214037 29 169 1.6 8.0 0.00 0.00 0.00 57 1015.2
20260903213536 29 207 3.2 8.0 0.00 0.00 0.00 57 1015.4
20260903213036 29 183 3.2 6.4 0.00 0.00 0.00 56 1015.4
20260903212537 29 162 1.6 8.0 0.00 0.00 0.00 57 1015.2
20260903212037 29 129 0.0 4.8 0.00 0.00 0.00 56 1015.4
20260903211537 29 185 1.6 8.0 0.00 0.00 0.00 57 1015.5
20260903211034 29 207 3.2 8.0 0.00 0.00 0.00 56 1015.5
20260903210534 29 179 3.2 9.7 0.00 0.00 0.00 55 1015.6
20260903210041 29 221 3.2 9.7 0.00 0.00 0.00 56 1015.6
20260903205533 29 203 3.2 8.0 0.00 0.00 0.00 56 1015.6
20260903205034 29 229 3.2 9.7 0.00 0.00 0.00 55 1015.6
20260903204533 30 160 4.8 9.7 0.00 0.00 0.00 55 1015.6
20260903204034 30 121 3.2 11.3 0.00 0.00 0.00 54 1015.6
20260903203531 30 191 3.2 11.3 0.00 0.00 0.00 55 1015.6
20260903203031 30 171 3.2 9.7 0.00 0.00 0.00 55 1015.6
20260903202532 30 191 4.8 9.7 0.00 0.00 0.00 54 1015.6
20260903202031 30 166 3.2 9.7 0.00 0.00 0.00 54 1015.7
20260903201533 30 195 1.6 12.9 0.00 0.00 0.00 56 1015.8
20260903201028 30 187 4.8 12.9 0.00 0.00 0.00 55 1015.9
20260903200529 30 186 4.8 12.9 0.00 0.00 0.00 53 1015.9
20260903200029 30 222 3.2 11.3 0.00 0.00 0.00 56 1015.9
20260903195528 30 184 1.6 16.1 0.00 0.00 0.00 55 1016.0
20260903195028 30 143 3.2 16.1 0.00 0.00 0.00 53 1016.0
20260903194526 31 185 3.2 9.7 0.00 0.00 0.00 55 1016.2
20260903194026 31 217 3.2 8.0 0.00 0.00 0.00 55 1016.1
20260903193525 31 158 0.0 9.7 0.00 0.00 0.00 54 1016.2
20260903193025 31 73 0.0 12.9 0.00 0.00 0.00 54 1016.2
20260903192525 31 134 3.2 11.3 0.00 0.00 0.00 53 1016.2
20260903192028 31 167 3.2 12.9 0.00 0.00 0.00 53 1016.2
20260903191529 31 207 1.6 12.9 0.00 0.00 0.00 54 1016.2
20260903191024 32 195 1.6 8.0 0.00 0.00 0.00 54 1016.3
20260903190524 32 181 1.6 8.0 0.00 0.00 0.00 54 1016.3
20260903190024 32 186 1.6 9.7 0.00 0.00 0.00 56 1016.3
20260903185522 32 94 3.2 9.7 0.00 0.00 0.00 54 1016.4
20260903185026 31 201 1.6 6.4 0.00 0.00 0.00 56 1016.4
20260903184525 31 169 1.6 9.7 0.00 0.00 0.00 55 1016.5
20260903184021 31 189 4.8 9.7 0.00 0.00 0.00 56 1016.5
20260903183521 31 198 3.2 9.7 0.00 0.00 0.00 55 1016.5
20260903183020 31 214 3.2 9.7 0.00 0.00 0.00 57 1016.6
20260903182522 31 139 3.2 9.7 0.00 0.00 0.00 58 1016.5
20260903182020 31 239 1.6 9.7 0.00 0.00 0.00 55 1016.8
20260903181519 31 195 3.2 6.4 0.00 0.00 0.00 54 1016.8
20260903181019 31 193 1.6 6.4 0.00 0.00 0.00 56 1016.9
20260903180519 31 200 1.6 14.5 0.00 0.00 0.00 54 1016.9
20260903180018 31 182 1.6 14.5 0.00 0.00 0.00 57 1016.9
20260903175518 31 235 6.4 12.9 0.00 0.00 0.00 52 1017.0
20260903175017 31 175 1.6 9.7 0.00 0.00 0.00 57 1017.0
20260903174516 32 182 3.2 8.0 0.00 0.00 0.00 54 1017.1
20260903174016 32 245 0.0 4.8 0.00 0.00 0.00 52 1017.1
20260903173514 32 127 0.0 3.2 0.00 0.00 0.00 49 1017.3
20260903173018 32 105 0.0 4.8 0.00 0.00 0.00 50 1017.3
20260903172515 31 226 1.6 4.8 0.00 0.00 0.00 49 1017.2
20260903172012 31 349 0.0 4.8 0.00 0.00 0.00 52 1017.3
20260903171511 31 348 0.0 4.8 0.00 0.00 0.00 52 1017.3
20260903171011 31 72 1.6 4.8 0.00 0.00 0.00 50 1017.4
20260903170510 31 139 0.0 4.8 0.00 0.00 0.00 53 1017.4
20260903170012 31 7 0.0 4.8 0.00 0.00 0.00 53 1017.5
20260903165509 31 153 0.0 1.6 0.00 0.00 0.00 55 1017.5
20260903165008 31 154 0.0 3.2 0.00 0.00 0.00 56 1017.6
20260903164509 30 70 0.0 4.8 0.00 0.00 0.00 53 1017.6
20260903164007 31 150 1.6 4.8 0.00 0.00 0.00 53 1017.7
20260903163507 30 212 0.0 4.8 0.00 0.00 0.00 56 1017.7
20260903163005 30 54 0.0 4.8 0.00 0.00 0.00 55 1017.8
20260903162504 30 101 1.6 4.8 0.00 0.00 0.00 55 1017.9
20260903162004 29 210 1.6 4.8 0.00 0.00 0.00 55 1017.8
20260903161503 28 111 1.6 6.4 0.00 0.00 0.00 59 1017.8
20260903161003 28 95 1.6 6.4 0.00 0.00 0.00 58 1017.8
20260903160504 29 131 0.0 9.7 0.00 0.00 0.00 58 1017.8
20260903160003 29 98 1.6 9.7 0.00 0.00 0.00 57 1017.9
20260903155601 30 160 0.0 4.8 0.00 0.00 0.00 57 1017.9
20260903155001 30 345 0.0 3.2 0.00 0.00 0.00 59 1018.0
20260903154600 30 92 0.0 4.8 0.00 0.00 0.00 58 1018.1
20260903154100 30 354 0.0 4.8 0.00 0.00 0.00 58 1018.1
20260903153559 30 184 0.0 3.2 0.00 0.00 0.00 59 1018.1
20260903153056 29 103 0.0 4.8 0.00 0.00 0.00 62 1018.2
20260903152555 28 204 0.0 4.8 0.00 0.00 0.00 64 1018.1
20260903152058 28 97 0.0 3.2 0.00 0.00 0.00 64 1018.2
20260903151555 28 13 0.0 8.0 0.00 0.00 0.00 64 1018.1
20260903151054 28 11 1.6 8.0 0.00 0.00 0.00 63 1018.1
20260903150554 27 116 0.0 3.2 0.00 0.00 0.00 67 1018.0
20260903150055 27 101 0.0 4.8 0.00 0.00 0.00 65 1018.1
20260903145554 27 36 1.6 4.8 0.00 0.00 0.00 64 1018.0
20260903145053 27 102 0.0 4.8 0.00 0.00 0.00 67 1018.0
20260903144553 27 55 0.0 4.8 0.00 0.00 0.00 66 1018.1
20260903144055 27 347 0.0 3.2 0.00 0.00 0.00 68 1018.0
20260903143552 27 346 0.0 8.0 0.00 0.00 0.00 67 1018.1
20260903143107 27 359 3.2 8.0 0.00 0.00 0.00 63 1018.1
20260903142552 28 352 0.0 3.2 0.00 0.00 0.00 64 1018.0
20260903142051 28 244 0.0 1.6 0.00 0.00 0.00 67 1018.1
20260903141550 28 244 0.0 1.6 0.00 0.00 0.00 66 1018.0
20260903141050 27 244 0.0 1.6 0.00 0.00 0.00 71 1018.1
20260903140548 27 244 0.0 1.6 0.00 0.00 0.00 73 1018.0
20260903140046 27 244 0.0 1.6 0.00 0.00 0.00 72 1018.0
20260903135546 27 244 0.0 0.0 0.00 0.00 0.00 75 1018.0
20260903135044 27 244 0.0 1.6 0.00 0.00 0.00 76 1018.1
20260903134542 26 244 0.0 1.6 0.00 0.00 0.00 79 1018.0
20260903134040 25 244 0.0 1.6 0.00 0.00 0.00 82 1018.1
20260903133539 25 244 0.0 0.0 0.00 0.00 0.00 84 1018.1
20260903133038 25 244 0.0 0.0 0.00 0.00 0.00 86 1018.1
20260903132537 24 244 0.0 0.0 0.00 0.00 0.00 88 1018.1
20260903132035 23 244 0.0 0.0 0.00 0.00 0.00 91 1018.2
20260903131534 22 244 0.0 0.0 0.00 0.00 0.00 93 1018.2
20260903131032 22 244 0.0 0.0 0.00 0.00 0.00 96 1018.3
20260903130531 21 244 0.0 0.0 0.00 0.00 0.00 95 1018.3
20260903130028 21 244 0.0 0.0 0.00 0.00 0.00 95 1018.4
20260903125528 20 244 0.0 0.0 0.00 0.00 0.00 96 1018.4
20260903125028 20 244 0.0 0.0 0.00 0.00 0.00 96 1018.5
20260903124534 20 244 0.0 0.0 0.00 0.00 0.00 96 1018.4
20260903124025 20 244 0.0 0.0 0.00 0.00 0.00 96 1018.5
20260903123526 19 244 0.0 0.0 0.00 0.00 0.00 96 1018.4
20260903123036 18 244 0.0 0.0 0.00 0.00 0.00 96 1018.4
20260903122525 17 244 0.0 0.0 0.00 0.00 0.00 96 1018.4
20260903122025 17 244 0.0 0.0 0.00 0.00 0.00 96 1018.4
20260903121532 17 244 0.0 0.0 0.00 0.00 0.00 96 1018.3
20260903121027 17 244 0.0 0.0 0.00 0.00 0.00 96 1018.3
20260903120524 17 244 0.0 0.0 0.00 0.00 0.00 96 1018.2
20260903120024 17 244 0.0 0.0 0.00 0.00 0.00 96 1018.1
20260903115523 16 244 0.0 0.0 0.00 0.00 0.00 96 1018.1
20260903115022 16 244 0.0 0.0 0.00 0.00 0.00 96 1018.1
20260903114521 16 244 0.0 0.0 0.00 0.00 0.00 96 1017.9
20260903114020 16 244 0.0 0.0 0.00 0.00 0.00 96 1017.9
20260903113520 16 244 0.0 0.0 0.00 0.00 0.00 96 1017.8
20260903113033 16 244 0.0 0.0 0.00 0.00 0.00 96 1017.8
20260903112518 16 244 0.0 0.0 0.00 0.00 0.00 96 1017.7
20260903112018 16 244 0.0 0.0 0.00 0.00 0.00 96 1017.7
20260903111520 16 244 0.0 0.0 0.00 0.00 0.00 96 1017.6
20260903111017 16 244 0.0 0.0 0.00 0.00 0.00 96 1017.6
20260903110516 16 244 0.0 0.0 0.00 0.00 0.00 96 1017.6
20260903110016 16 244 0.0 0.0 0.00 0.00 0.00 96 1017.5
20260903105515 16 244 0.0 0.0 0.00 0.00 0.00 96 1017.5
20260903105015 16 244 0.0 0.0 0.00 0.00 0.00 96 1017.5
20260903104514 16 244 0.0 0.0 0.00 0.00 0.00 96 1017.4
20260903104012 17 244 0.0 0.0 0.00 0.00 0.00 96 1017.4
20260903103513 17 244 0.0 0.0 0.00 0.00 0.00 96 1017.4
20260903103013 17 244 0.0 0.0 0.00 0.00 0.00 96 1017.4
20260903102511 16 244 0.0 0.0 0.00 0.00 0.00 96 1017.3
20260903102016 16 244 0.0 0.0 0.00 0.00 0.00 96 1017.3
20260903101512 16 244 0.0 0.0 0.00 0.00 0.00 96 1017.3
20260903101012 16 244 0.0 0.0 0.00 0.00 0.00 96 1017.3
20260903100512 16 244 0.0 0.0 0.00 0.00 0.00 96 1017.4
20260903100019 16 244 0.0 0.0 0.00 0.00 0.00 96 1017.3
20260903095512 16 244 0.0 0.0 0.00 0.00 0.00 96 1017.4
20260903095014 17 244 0.0 0.0 0.00 0.00 0.00 96 1017.4
20260903094509 17 244 0.0 0.0 0.00 0.00 0.00 96 1017.4
20260903094012 17 244 0.0 0.0 0.00 0.00 0.00 96 1017.4
20260903093508 17 244 0.0 0.0 0.00 0.00 0.00 96 1017.4
20260903093011 17 244 0.0 0.0 0.00 0.00 0.00 96 1017.4
20260903092509 17 244 0.0 0.0 0.00 0.00 0.00 96 1017.4
20260903092007 17 244 0.0 0.0 0.00 0.00 0.00 96 1017.4
20260903091516 17 244 0.0 0.0 0.00 0.00 0.00 96 1017.3
20260903091005 17 244 0.0 0.0 0.00 0.00 0.00 96 1017.4
20260903090505 17 244 0.0 0.0 0.00 0.00 0.00 96 1017.3
20260903090004 17 244 0.0 0.0 0.00 0.00 0.00 96 1017.4
20260903085504 17 244 0.0 0.0 0.00 0.00 0.00 96 1017.3
20260903085004 17 244 0.0 0.0 0.00 0.00 0.00 96 1017.3
20260903084508 17 244 0.0 0.0 0.00 0.00 0.00 96 1017.2
20260903084003 17 244 0.0 0.0 0.00 0.00 0.00 96 1017.1
20260903083504 17 244 0.0 0.0 0.00 0.00 0.00 96 1017.2
20260903083003 17 244 0.0 0.0 0.00 0.00 0.00 96 1017.2
20260903082504 17 244 0.0 0.0 0.00 0.00 0.00 96 1017.0
20260903082002 17 244 0.0 0.0 0.00 0.00 0.00 96 1017.0
20260903081506 17 244 0.0 0.0 0.00 0.00 0.00 96 1017.1
20260903081001 17 244 0.0 1.6 0.00 0.00 0.00 96 1017.1
20260903080500 17 244 0.0 1.6 0.00 0.00 0.00 96 1017.1
20260903080001 17 244 0.0 0.0 0.00 0.00 0.00 96 1017.1
20260903075501 17 244 0.0 0.0 0.00 0.00 0.00 96 1017.1
20260903075000 17 244 0.0 1.6 0.00 0.00 0.00 96 1017.0
20260903074600 17 244 0.0 1.6 0.00 0.00 0.00 96 1016.9
20260903074100 17 103 0.0 0.0 0.00 0.00 0.00 96 1016.9
20260903073559 18 103 0.0 0.0 0.00 0.00 0.00 96 1016.9
20260903073057 18 103 0.0 0.0 0.00 0.00 0.00 96 1016.9
20260903072601 18 103 0.0 0.0 0.00 0.00 0.00 96 1016.8
20260903072056 18 103 0.0 0.0 0.00 0.00 0.00 96 1016.8
20260903071556 18 103 0.0 0.0 0.00 0.00 0.00 96 1016.8
20260903071055 18 103 0.0 0.0 0.00 0.00 0.00 96 1016.7
20260903070554 18 103 0.0 0.0 0.00 0.00 0.00 96 1016.8
20260903070054 18 103 0.0 0.0 0.00 0.00 0.00 96 1016.8
20260903065556 18 103 0.0 1.6 0.00 0.00 0.00 96 1016.7
20260903065053 18 103 0.0 3.2 0.00 0.00 0.00 96 1016.8
20260903064553 18 103 0.0 3.2 0.00 0.00 0.00 96 1016.8
20260903064052 18 117 0.0 0.0 0.00 0.00 0.00 96 1016.9
20260903063551 18 117 0.0 0.0 0.00 0.00 0.00 96 1016.8
20260903063051 18 117 0.0 0.0 0.00 0.00 0.00 96 1016.9
20260903062551 18 117 0.0 0.0 0.00 0.00 0.00 96 1016.8
20260903062051 18 117 0.0 0.0 0.00 0.00 0.00 96 1016.8
20260903061554 18 117 0.0 1.6 0.00 0.00 0.00 96 1016.9
20260903061049 18 117 0.0 1.6 0.00 0.00 0.00 96 1016.9
20260903060549 18 117 0.0 0.0 0.00 0.00 0.00 96 1017.0
20260903060049 18 117 0.0 0.0 0.00 0.00 0.00 96 1017.0
20260903055550 18 117 0.0 0.0 0.00 0.00 0.00 96 1017.0
20260903055049 18 117 0.0 0.0 0.00 0.00 0.00 96 1017.1
20260903054549 18 117 0.0 0.0 0.00 0.00 0.00 96 1017.1
20260903054048 18 117 0.0 0.0 0.00 0.00 0.00 96 1017.1
20260903053547 18 117 0.0 0.0 0.00 0.00 0.00 96 1017.1
20260903053047 18 117 0.0 0.0 0.00 0.00 0.00 96 1017.1
20260903052546 18 117 0.0 0.0 0.00 0.00 0.00 96 1017.3
20260903052046 18 117 0.0 0.0 0.00 0.00 0.00 96 1017.2
20260903051545 18 117 0.0 0.0 0.00 0.00 0.00 96 1017.3
20260903051044 18 117 0.0 0.0 0.00 0.00 0.00 96 1017.3
20260903050546 19 117 0.0 0.0 0.00 0.00 0.00 96 1017.4
20260903050043 19 117 0.0 0.0 0.00 0.00 0.00 95 1017.4
20260903045544 19 117 0.0 0.0 0.00 0.00 0.00 95 1017.4
20260903045043 19 117 0.0 0.0 0.00 0.00 0.00 95 1017.5
20260903044542 20 117 0.0 0.0 0.00 0.00 0.00 96 1017.4
20260903044044 20 117 0.0 0.0 0.00 0.00 0.00 96 1017.4
20260903043540 20 117 0.0 0.0 0.00 0.00 0.00 95 1017.4
20260903043044 19 117 0.0 0.0 0.00 0.00 0.00 96 1017.4
20260903042539 19 117 0.0 0.0 0.00 0.00 0.00 96 1017.4
20260903042040 19 117 0.0 0.0 0.00 0.00 0.00 95 1017.5
20260903041543 19 117 0.0 0.0 0.00 0.00 0.00 95 1017.6
20260903041036 19 117 0.0 0.0 0.00 0.00 0.00 95 1017.6
20260903040536 19 117 0.0 0.0 0.00 0.00 0.00 95 1017.6
20260903040035 20 117 0.0 0.0 0.00 0.00 0.00 95 1017.6
20260903035534 20 117 0.0 0.0 0.00 0.00 0.00 95 1017.6
20260903035034 20 117 0.0 0.0 0.00 0.00 0.00 95 1017.7
20260903034542 20 117 0.0 0.0 0.00 0.00 0.00 95 1017.7
20260903034034 20 117 0.0 0.0 0.00 0.00 0.00 95 1017.8
20260903033536 20 117 0.0 0.0 0.00 0.00 0.00 95 1017.8
20260903033033 20 117 0.0 0.0 0.00 0.00 0.00 95 1017.9
20260903032535 20 117 0.0 0.0 0.00 0.00 0.00 95 1018.1
20260903032034 20 117 0.0 0.0 0.00 0.00 0.00 95 1018.2
20260903031538 20 117 0.0 0.0 0.00 0.00 0.00 95 1018.1
20260903031034 20 117 0.0 0.0 0.00 0.00 0.00 95 1018.1
20260903030534 20 117 0.0 0.0 0.00 0.00 0.00 95 1018.1
20260903030033 20 117 0.0 0.0 0.00 0.00 0.00 94 1018.2
20260903025535 20 117 0.0 0.0 0.00 0.00 0.00 94 1018.3
20260903025031 20 117 0.0 0.0 0.00 0.00 0.00 94 1018.3
20260903024531 20 117 0.0 0.0 0.00 0.00 0.00 94 1018.3
20260903024033 20 117 0.0 0.0 0.00 0.00 0.00 94 1018.4
20260903023530 20 117 0.0 0.0 0.00 0.00 0.00 94 1018.3
20260903023030 20 117 0.0 0.0 0.00 0.00 0.00 94 1018.2
20260903022531 20 117 0.0 0.0 0.00 0.00 0.00 94 1018.2
20260903022029 21 117 0.0 0.0 0.00 0.00 0.00 94 1018.1
20260903021529 21 117 0.0 0.0 0.00 0.00 0.00 93 1018.1
20260903021028 21 117 0.0 0.0 0.00 0.00 0.00 93 1018.1
20260903020532 21 117 0.0 0.0 0.00 0.00 0.00 93 1018.1
20260903020046 21 117 0.0 0.0 0.00 0.00 0.00 93 1018.2
20260903015531 21 117 0.0 0.0 0.00 0.00 0.00 92 1018.1
20260903015027 21 117 0.0 0.0 0.00 0.00 0.00 92 1018.0
20260903014026 21 117 0.0 0.0 0.00 0.00 0.00 92 1018.0
20260903013529 21 117 0.0 0.0 0.00 0.00 0.00 92 1018.0
20260903013025 21 117 0.0 0.0 0.00 0.00 0.00 92 1017.9
20260903012525 21 117 0.0 0.0 0.00 0.00 0.00 92 1018.0
20260903012029 21 117 0.0 0.0 0.00 0.00 0.00 92 1017.9
20260903011525 21 117 0.0 0.0 0.00 0.00 0.00 91 1017.8
20260903011026 21 117 0.0 0.0 0.00 0.00 0.00 91 1017.7
20260903010525 22 117 0.0 0.0 0.00 0.00 0.00 91 1017.6
20260903010025 22 117 0.0 0.0 0.00 0.00 0.00 90 1017.5
20260903005526 22 117 0.0 0.0 0.00 0.00 0.00 90 1017.5
20260903005024 22 117 0.0 0.0 0.00 0.00 0.00 90 1017.4
20260903004526 22 117 0.0 0.0 0.00 0.00 0.00 90 1017.4
20260903004024 22 117 0.0 1.6 0.00 0.00 0.00 89 1017.3
20260903003524 22 117 0.0 1.6 0.00 0.00 0.00 89 1017.2
20260903003023 22 117 0.0 1.6 0.00 0.00 0.00 89 1017.2
20260903002523 23 117 0.0 1.6 0.00 0.00 0.00 88 1017.1
20260903002023 23 117 0.0 1.6 0.00 0.00 0.00 88 1017.1
20260903001523 23 117 0.0 1.6 0.00 0.00 0.00 87 1017.1
20260903001023 23 118 0.0 3.2 0.00 0.00 0.00 87 1017.1
20260903000523 23 117 0.0 3.2 0.00 0.00 0.00 86 1017.1
20260903000023 24 128 0.0 1.6 0.00 0.00 0.00 85 1017.2
20260902235523 24 140 0.0 1.6 0.00 0.00 0.00 83 1017.1
20260902235021 25 160 0.0 0.0 0.00 0.00 0.00 81 1017.0
20260902234522 25 160 0.0 0.0 0.00 0.00 0.00 79 1017.0
20260902234022 25 160 0.0 0.0 0.00 0.00 0.00 78 1017.0
20260902233521 26 160 0.0 0.0 0.00 0.00 0.00 77 1017.0
20260902233021 26 160 0.0 0.0 0.00 0.00 0.00 76 1017.0
20260902232521 26 160 0.0 0.0 0.00 0.00 0.00 75 1017.0
20260902232020 26 160 0.0 0.0 0.00 0.00 0.00 73 1017.0
20260902231521 26 203 0.0 0.0 0.00 0.00 0.00 73 1016.9